STARLINK-1965 (47566 NORAD) Tracking and Keplerian Element Data

This shows tracking and keplerian element data for the satellite.

Feedback or suggestion? Click here.




ElementValue
Catalog47566
NameSTARLINK-1965
Epoch Orbit177
Epoch Day101.91668981
Epoch Year2021
RAAN157.5181
Inclination53.0522
Eccentricity0.0004172
Argument of Perigee12.177
Mean Anonmoly249.2373
Mean Motion15.62803675
Decay Rate0.00033753
L11 47566U 21009U 21101.91668981 .00033753 00000-0 37210-3 0 9990
L22 47566 53.0522 157.5181 0004172 12.1770 249.2373 15.62803675 1775

Live tracking and technical data element details for STARLINK-1965 (NORAD 47566). STARLINK-1965 can be tracked NOW for your location showing map with azimuth and elevation plus other details from your city location.

Track the satellite on the map from your city or location and see movement details for azimuth, elevation, latitude, longitude, range, height, and movement on the map or in text.







IsCatalogInMostPopularTable: catalog: 47566, numindb: 17
Update: records affected: 1



GetName: 47566 STARLINK-1965

Hit Count: updated at: Tue, 13 Apr 2021 04:41:25 GMT